Location: Celina Elementary School
(33.3262°N, 96.7767°W)
Time: 09:09:35
(UTC+00:00)

Cosmos 1766 Rocket - Pass Details

Date: 26 November 2021
Orbit: 606 x 631 km, 82.5° (Epoch: 19 January)

Event Time Altitude Azimuth Distance (km) Brightness Sun altitude
Rises 12:39:09 0° 189° (S) 2,875 7.1 -6.5°
Reaches altitude 10° 12:41:22 10° 191° (S) 1,970 6.3 -6.1°
Maximum altitude 12:45:43 74° 276° (W) 640 3.5 -5.2°
Drops below altitude 10° 12:50:04 10° 2° (N) 1,968 5.9 -4.4°
Sets 12:52:18 0° 5° (N) 2,873 6.8 -4.0°
